| time (UTC) | temp F | wind direction | speed MPH | gust MPH | rain 1hr in | rain 24hr in | rain mn in | humidity % | barometer mb |
| 20260502152212 | 53 | 192 | 3.0 | 8.0 | 0.00 | 0.00 | 0.00 | 51 | 1017.4 |
| 20260502151710 | 53 | 192 | 3.0 | 8.0 | 0.00 | 0.00 | 0.00 | 51 | 1017.4 |
| 20260502151207 | 53 | 326 | 2.0 | 4.0 | 0.00 | 0.00 | 0.00 | 53 | 1017.5 |
| 20260502150704 | 53 | 318 | 2.0 | 6.0 | 0.00 | 0.00 | 0.00 | 51 | 1017.6 |
| 20260502150200 | 53 | 311 | 3.0 | 4.0 | 0.00 | 0.00 | 0.00 | 50 | 1017.5 |
| 20260502140124 | 48 | 4 | 3.0 | 3.0 | 0.00 | 0.00 | 0.00 | 66 | 1017.9 |
| 20260502130549 | 44 | 7 | 2.0 | 2.0 | 0.00 | 0.00 | 0.00 | 99 | 1016.6 |
| 20260502123532 | 42 | 347 | 1.0 | 1.0 | 0.00 | 0.00 | 0.00 | 99 | 1016.3 |
| 20260502123028 | 41 | 344 | 0.0 | 1.0 | 0.00 | 0.00 | 0.00 | 99 | 1016.3 |
| 20260502122525 | 41 | 348 | 0.0 | 1.0 | 0.00 | 0.00 | 0.00 | 99 | 1016.4 |
| 20260502122023 | 41 | 348 | 0.0 | 0.0 | 0.00 | 0.00 | 0.00 | 99 | 1016.2 |
| 20260502121520 | 39 | 348 | 0.0 | 0.0 | 0.00 | 0.00 | 0.00 | 99 | 1016.3 |
| 20260502121017 | 39 | 348 | 0.0 | 0.0 | 0.00 | 0.00 | 0.00 | 99 | 1016.2 |
| 20260502120513 | 39 | 348 | 0.0 | 0.0 | 0.00 | 0.00 | 0.00 | 99 | 1016.2 |
| 20260502115508 | 38 | 348 | 0.0 | 0.0 | 0.00 | 0.00 | 0.00 | 99 | 1016.0 |
| 20260502115004 | 38 | 347 | 0.0 | 0.0 | 0.00 | 0.00 | 0.00 | 99 | 1016.0 |
| 20260502114501 | 38 | 347 | 0.0 | 1.0 | 0.00 | 0.00 | 0.00 | 99 | 1016.0 |
| 20260502113958 | 38 | 356 | 0.0 | 0.0 | 0.00 | 0.00 | 0.00 | 99 | 1016.1 |
| 20260502113455 | 38 | 356 | 0.0 | 1.0 | 0.00 | 0.00 | 0.00 | 99 | 1016.1 |
| 20260502112954 | 38 | 331 | 0.0 | 2.0 | 0.00 | 0.00 | 0.00 | 99 | 1016.1 |
| 20260502112451 | 37 | 329 | 0.0 | 1.0 | 0.00 | 0.00 | 0.00 | 99 | 1016.1 |
| 20260502111948 | 37 | 329 | 1.0 | 1.0 | 0.00 | 0.00 | 0.00 | 99 | 1016.1 |
| 20260502111445 | 37 | 335 | 1.0 | 2.0 | 0.00 | 0.00 | 0.00 | 99 | 1016.2 |
| 20260502110943 | 37 | 346 | 1.0 | 1.0 | 0.00 | 0.00 | 0.00 | 99 | 1016.1 |
| 20260502110440 | 37 | 330 | 2.0 | 2.0 | 0.00 | 0.00 | 0.00 | 99 | 1016.1 |
| 20260502105937 | 38 | 14 | 0.0 | 1.0 | 0.00 | 0.00 | 0.00 | 99 | 1015.9 |
| 20260502105435 | 38 | 12 | 0.0 | 1.0 | 0.00 | 0.00 | 0.00 | 99 | 1015.7 |
| 20260502104933 | 37 | 18 | 0.0 | 0.0 | 0.00 | 0.00 | 0.00 | 99 | 1015.8 |
| 20260502104429 | 37 | 19 | 1.0 | 1.0 | 0.00 | 0.00 | 0.00 | 99 | 1016.0 |
| 20260502103927 | 37 | 18 | 1.0 | 1.0 | 0.00 | 0.00 | 0.00 | 99 | 1015.9 |
| 20260502103425 | 38 | 17 | 1.0 | 1.0 | 0.00 | 0.00 | 0.00 | 99 | 1016.2 |
| 20260502102921 | 38 | 16 | 0.0 | 0.0 | 0.00 | 0.00 | 0.00 | 99 | 1016.3 |
| 20260502102418 | 38 | 16 | 0.0 | 0.0 | 0.00 | 0.00 | 0.00 | 99 | 1016.2 |
| 20260502101915 | 38 | 16 | 0.0 | 0.0 | 0.00 | 0.00 | 0.00 | 99 | 1016.2 |
| 20260502101414 | 38 | 16 | 0.0 | 0.0 | 0.00 | 0.00 | 0.00 | 99 | 1016.2 |
| 20260502100911 | 37 | 16 | 0.0 | 0.0 | 0.00 | 0.00 | 0.00 | 99 | 1016.3 |
| 20260502100410 | 37 | 16 | 0.0 | 0.0 | 0.00 | 0.00 | 0.00 | 99 | 1016.1 |
| 20260502091343 | 38 | 77 | 0.0 | 1.0 | 0.00 | 0.00 | 0.00 | 99 | 1016.3 |
| 20260502090841 | 38 | 78 | 0.0 | 1.0 | 0.00 | 0.00 | 0.00 | 99 | 1016.1 |
| 20260502090338 | 38 | 77 | 0.0 | 0.0 | 0.00 | 0.00 | 0.00 | 99 | 1016.3 |
| 20260502071233 | 38 | 86 | 0.0 | 1.0 | 0.00 | 0.00 | 0.00 | 99 | 1015.8 |
| 20260502070731 | 38 | 88 | 0.0 | 1.0 | 0.00 | 0.00 | 0.00 | 99 | 1015.8 |
| 20260502070228 | 37 | 93 | 0.0 | 0.0 | 0.00 | 0.00 | 0.00 | 99 | 1015.9 |
| 20260502065726 | 37 | 92 | 1.0 | 1.0 | 0.00 | 0.00 | 0.00 | 99 | 1015.9 |
| 20260502065224 | 36 | 93 | 1.0 | 1.0 | 0.00 | 0.00 | 0.00 | 99 | 1016.1 |
| 20260502064723 | 36 | 94 | 1.0 | 2.0 | 0.00 | 0.00 | 0.00 | 99 | 1015.9 |
| 20260502064220 | 36 | 98 | 1.0 | 2.0 | 0.00 | 0.00 | 0.00 | 99 | 1016.0 |
| 20260502063717 | 37 | 97 | 1.0 | 1.0 | 0.00 | 0.00 | 0.00 | 99 | 1016.2 |
| 20260502063215 | 37 | 98 | 1.0 | 1.0 | 0.00 | 0.00 | 0.00 | 99 | 1016.0 |
| 20260502062712 | 37 | 97 | 0.0 | 1.0 | 0.00 | 0.00 | 0.00 | 99 | 1016.2 |
| 20260502062209 | 37 | 97 | 0.0 | 1.0 | 0.00 | 0.00 | 0.00 | 99 | 1016.2 |
| 20260502061708 | 37 | 97 | 0.0 | 0.0 | 0.00 | 0.00 | 0.00 | 99 | 1016.2 |
| 20260502061205 | 37 | 96 | 1.0 | 1.0 | 0.00 | 0.00 | 0.00 | 99 | 1016.4 |
| 20260502060700 | 36 | 98 | 0.0 | 0.0 | 0.00 | 0.00 | 0.00 | 99 | 1016.5 |
| 20260502060157 | 36 | 98 | 0.0 | 0.0 | 0.00 | 0.00 | 0.00 | 98 | 1016.4 |
| 20260502055654 | 37 | 98 | 1.0 | 1.0 | 0.00 | 0.00 | 0.00 | 98 | 1016.5 |
| 20260502055152 | 38 | 358 | 1.0 | 1.0 | 0.00 | 0.00 | 0.00 | 98 | 1016.5 |
| 20260502054651 | 37 | 56 | 1.0 | 1.0 | 0.00 | 0.00 | 0.00 | 98 | 1016.7 |
| 20260502054148 | 37 | 63 | 0.0 | 0.0 | 0.00 | 0.00 | 0.00 | 98 | 1016.5 |
| 20260502053645 | 37 | 63 | 0.0 | 0.0 | 0.00 | 0.00 | 0.00 | 98 | 1016.7 |
| 20260502053142 | 37 | 63 | 0.0 | 0.0 | 0.00 | 0.00 | 0.00 | 98 | 1016.4 |
| 20260502052640 | 36 | 63 | 0.0 | 0.0 | 0.00 | 0.00 | 0.00 | 98 | 1016.5 |
| 20260502052138 | 37 | 63 | 0.0 | 0.0 | 0.00 | 0.00 | 0.00 | 98 | 1016.4 |
| 20260502051636 | 37 | 63 | 0.0 | 0.0 | 0.00 | 0.00 | 0.00 | 98 | 1016.4 |
| 20260502051134 | 37 | 63 | 0.0 | 0.0 | 0.00 | 0.00 | 0.00 | 98 | 1016.5 |
| 20260502050630 | 37 | 63 | 0.0 | 0.0 | 0.00 | 0.00 | 0.00 | 98 | 1016.6 |
| 20260502050127 | 37 | 63 | 0.0 | 0.0 | 0.00 | 0.00 | 0.00 | 98 | 1016.5 |
| 20260502045623 | 37 | 63 | 0.0 | 0.0 | 0.00 | 0.00 | 0.00 | 97 | 1016.5 |
| 20260502045121 | 37 | 63 | 0.0 | 0.0 | 0.00 | 0.00 | 0.00 | 97 | 1016.5 |
| 20260502044617 | 37 | 63 | 0.0 | 0.0 | 0.00 | 0.00 | 0.00 | 97 | 1016.6 |
| 20260502044114 | 38 | 63 | 0.0 | 0.0 | 0.00 | 0.00 | 0.00 | 97 | 1016.5 |
| 20260502043612 | 38 | 63 | 0.0 | 0.0 | 0.00 | 0.00 | 0.00 | 97 | 1016.5 |
| 20260502043103 | 38 | 63 | 0.0 | 0.0 | 0.00 | 0.00 | 0.00 | 97 | 1016.5 |
| 20260502042602 | 38 | 63 | 0.0 | 0.0 | 0.00 | 0.00 | 0.00 | 97 | 1016.5 |
| 20260502042100 | 38 | 63 | 0.0 | 1.0 | 0.00 | 0.00 | 0.00 | 97 | 1016.5 |
| 20260502041558 | 38 | 63 | 0.0 | 0.0 | 0.00 | 0.00 | 0.00 | 96 | 1016.5 |
| 20260502041054 | 38 | 63 | 0.0 | 0.0 | 0.00 | 0.00 | 0.00 | 96 | 1016.5 |
| 20260502040551 | 39 | 63 | 0.0 | 0.0 | 0.00 | 0.00 | 0.00 | 96 | 1016.4 |
| 20260502040048 | 39 | 63 | 0.0 | 0.0 | 0.00 | 0.02 | 0.02 | 96 | 1016.5 |
| 20260502035544 | 39 | 63 | 0.0 | 0.0 | 0.00 | 0.02 | 0.02 | 96 | 1016.4 |
| 20260502035042 | 39 | 63 | 0.0 | 0.0 | 0.00 | 0.02 | 0.02 | 95 | 1016.5 |
| 20260502034540 | 39 | 63 | 0.0 | 1.0 | 0.00 | 0.02 | 0.02 | 95 | 1016.5 |
| 20260502034038 | 39 | 63 | 0.0 | 1.0 | 0.00 | 0.02 | 0.02 | 95 | 1016.4 |
| 20260502033536 | 39 | 63 | 0.0 | 0.0 | 0.00 | 0.02 | 0.02 | 94 | 1016.6 |
| 20260502033033 | 39 | 63 | 0.0 | 1.0 | 0.00 | 0.02 | 0.02 | 93 | 1016.5 |
| 20260502032528 | 40 | 63 | 0.0 | 0.0 | 0.00 | 0.02 | 0.02 | 93 | 1016.5 |
| 20260502032026 | 40 | 63 | 0.0 | 1.0 | 0.00 | 0.02 | 0.02 | 93 | 1016.6 |
| 20260502031523 | 40 | 63 | 0.0 | 0.0 | 0.00 | 0.02 | 0.02 | 93 | 1016.5 |
| 20260502031021 | 40 | 63 | 0.0 | 0.0 | 0.00 | 0.02 | 0.02 | 92 | 1016.5 |
| 20260502030520 | 40 | 64 | 0.0 | 0.0 | 0.00 | 0.02 | 0.02 | 92 | 1016.4 |
| 20260502030017 | 41 | 64 | 0.0 | 1.0 | 0.00 | 0.02 | 0.02 | 92 | 1016.5 |
| 20260502025514 | 41 | 63 | 1.0 | 1.0 | 0.00 | 0.02 | 0.02 | 91 | 1016.4 |
| 20260502025012 | 41 | 62 | 0.0 | 1.0 | 0.00 | 0.02 | 0.02 | 90 | 1016.6 |
| 20260502024509 | 41 | 62 | 0.0 | 0.0 | 0.00 | 0.02 | 0.02 | 89 | 1016.4 |
| 20260502024008 | 41 | 62 | 0.0 | 0.0 | 0.00 | 0.02 | 0.02 | 88 | 1016.3 |
| 20260502023505 | 42 | 62 | 0.0 | 0.0 | 0.00 | 0.02 | 0.02 | 88 | 1016.2 |
| 20260502023002 | 42 | 62 | 0.0 | 1.0 | 0.00 | 0.02 | 0.02 | 87 | 1016.1 |
| 20260502022459 | 42 | 62 | 0.0 | 0.0 | 0.00 | 0.02 | 0.02 | 87 | 1016.0 |
| 20260502021956 | 42 | 62 | 0.0 | 1.0 | 0.00 | 0.02 | 0.02 | 87 | 1016.0 |
| 20260502021453 | 43 | 62 | 0.0 | 0.0 | 0.00 | 0.02 | 0.02 | 85 | 1015.9 |
| 20260502020950 | 43 | 62 | 1.0 | 1.0 | 0.00 | 0.02 | 0.02 | 85 | 1015.8 |
| 20260502020448 | 43 | 62 | 0.0 | 1.0 | 0.00 | 0.02 | 0.02 | 84 | 1015.8 |
| 20260502015944 | 44 | 62 | 1.0 | 1.0 | 0.00 | 0.02 | 0.02 | 83 | 1015.7 |
| 20260502015442 | 44 | 62 | 1.0 | 1.0 | 0.00 | 0.02 | 0.02 | 83 | 1015.6 |
| 20260502014939 | 44 | 62 | 0.0 | 1.0 | 0.00 | 0.02 | 0.02 | 81 | 1015.5 |
| 20260502014436 | 45 | 63 | 0.0 | 1.0 | 0.00 | 0.02 | 0.02 | 80 | 1015.6 |
| 20260502013932 | 45 | 62 | 1.0 | 2.0 | 0.00 | 0.02 | 0.02 | 79 | 1015.5 |
| 20260502013427 | 45 | 61 | 1.0 | 2.0 | 0.00 | 0.02 | 0.02 | 78 | 1015.4 |
| 20260502012924 | 45 | 62 | 1.0 | 2.0 | 0.00 | 0.02 | 0.02 | 77 | 1015.4 |
| 20260502012422 | 45 | 63 | 1.0 | 1.0 | 0.00 | 0.02 | 0.02 | 77 | 1015.3 |
| 20260502011919 | 46 | 62 | 1.0 | 2.0 | 0.00 | 0.02 | 0.02 | 75 | 1015.1 |
| 20260502011415 | 46 | 56 | 0.0 | 2.0 | 0.00 | 0.02 | 0.02 | 75 | 1015.0 |
| 20260502010913 | 46 | 59 | 1.0 | 2.0 | 0.00 | 0.02 | 0.02 | 75 | 1015.1 |
| 20260502010409 | 47 | 58 | 1.0 | 2.0 | 0.00 | 0.02 | 0.02 | 73 | 1015.0 |
| 20260502005906 | 47 | 34 | 0.0 | 2.0 | 0.00 | 0.02 | 0.02 | 72 | 1014.7 |
| 20260502005404 | 47 | 50 | 1.0 | 1.0 | 0.00 | 0.02 | 0.02 | 70 | 1014.9 |
| 20260502004901 | 48 | 318 | 1.0 | 3.0 | 0.00 | 0.02 | 0.02 | 70 | 1014.7 |
| 20260502004357 | 48 | 344 | 2.0 | 3.0 | 0.00 | 0.02 | 0.02 | 68 | 1014.6 |
| 20260502003855 | 49 | 328 | 1.0 | 3.0 | 0.00 | 0.02 | 0.02 | 68 | 1014.4 |
| 20260502003352 | 49 | 329 | 3.0 | 4.0 | 0.00 | 0.02 | 0.02 | 67 | 1014.5 |
| 20260502002848 | 49 | 43 | 6.0 | 9.0 | 0.00 | 0.02 | 0.02 | 67 | 1014.3 |
| 20260502002345 | 50 | 310 | 4.0 | 6.0 | 0.00 | 0.02 | 0.02 | 66 | 1014.5 |
| 20260502001842 | 50 | 338 | 6.0 | 8.0 | 0.00 | 0.02 | 0.02 | 65 | 1014.5 |
| 20260502001340 | 51 | 321 | 5.0 | 9.0 | 0.00 | 0.02 | 0.02 | 64 | 1014.3 |
| 20260502000837 | 51 | 347 | 4.0 | 9.0 | 0.00 | 0.02 | 0.02 | 64 | 1014.1 |
| 20260502000335 | 51 | 303 | 5.0 | 9.0 | 0.00 | 0.02 | 0.02 | 65 | 1014.1 |
| 20260501235831 | 52 | 291 | 5.0 | 10.0 | 0.00 | 0.02 | 0.02 | 64 | 1013.7 |
| 20260501235327 | 52 | 304 | 8.0 | 15.0 | 0.00 | 0.02 | 0.02 | 62 | 1013.6 |
| 20260501234822 | 53 | 346 | 5.0 | 15.0 | 0.00 | 0.02 | 0.02 | 63 | 1013.7 |
| 20260501234320 | 53 | 330 | 5.0 | 13.0 | 0.00 | 0.02 | 0.02 | 63 | 1013.5 |
| 20260501233819 | 53 | 313 | 6.0 | 9.0 | 0.00 | 0.02 | 0.02 | 62 | 1013.3 |
| 20260501233315 | 53 | 6 | 3.0 | 6.0 | 0.00 | 0.02 | 0.02 | 63 | 1013.1 |
| 20260501232811 | 53 | 337 | 3.0 | 6.0 | 0.00 | 0.02 | 0.02 | 63 | 1013.1 |
| 20260501232308 | 53 | 288 | 4.0 | 6.0 | 0.00 | 0.02 | 0.02 | 62 | 1013.0 |
| 20260501231806 | 53 | 309 | 5.0 | 10.0 | 0.00 | 0.02 | 0.02 | 62 | 1013.2 |
| 20260501231304 | 54 | 321 | 5.0 | 7.0 | 0.00 | 0.02 | 0.02 | 63 | 1013.3 |
| 20260501230802 | 54 | 17 | 4.0 | 10.0 | 0.00 | 0.02 | 0.02 | 62 | 1012.9 |
| 20260501230300 | 54 | 323 | 4.0 | 9.0 | 0.00 | 0.02 | 0.02 | 63 | 1012.9 |
| 20260501225757 | 54 | 327 | 4.0 | 15.0 | 0.00 | 0.02 | 0.02 | 64 | 1013.1 |
| 20260501225255 | 54 | 332 | 4.0 | 13.0 | 0.00 | 0.02 | 0.02 | 64 | 1013.0 |
| 20260501224751 | 54 | 306 | 7.0 | 16.0 | 0.00 | 0.02 | 0.02 | 64 | 1012.8 |
| 20260501224248 | 55 | 324 | 2.0 | 4.0 | 0.00 | 0.02 | 0.02 | 69 | 1012.9 |
| 20260501223744 | 55 | 269 | 1.0 | 2.0 | 0.00 | 0.02 | 0.02 | 69 | 1012.8 |
| 20260501223241 | 55 | 355 | 5.0 | 7.0 | 0.00 | 0.02 | 0.02 | 67 | 1012.9 |
| 20260501222737 | 56 | 291 | 1.0 | 2.0 | 0.00 | 0.02 | 0.02 | 66 | 1012.8 |
| 20260501222234 | 56 | 351 | 3.0 | 6.0 | 0.00 | 0.02 | 0.02 | 66 | 1012.6 |
| 20260501221731 | 56 | 319 | 1.0 | 4.0 | 0.00 | 0.02 | 0.02 | 64 | 1012.6 |
| 20260501221228 | 56 | 335 | 3.0 | 6.0 | 0.00 | 0.02 | 0.02 | 66 | 1012.6 |
| 20260501220726 | 56 | 314 | 4.0 | 6.0 | 0.00 | 0.02 | 0.02 | 66 | 1012.5 |
| 20260501220223 | 56 | 346 | 6.0 | 8.0 | 0.00 | 0.02 | 0.02 | 66 | 1012.8 |
| 20260501215720 | 58 | 334 | 4.0 | 4.0 | 0.00 | 0.02 | 0.02 | 68 | 1012.7 |
| 20260501215215 | 56 | 286 | 2.0 | 3.0 | 0.00 | 0.02 | 0.02 | 73 | 1012.9 |
| 20260501214710 | 54 | 298 | 1.0 | 4.0 | 0.00 | 0.02 | 0.02 | 74 | 1012.6 |
| 20260501214207 | 54 | 298 | 1.0 | 3.0 | 0.00 | 0.02 | 0.02 | 75 | 1012.6 |
| 20260501213703 | 54 | 332 | 1.0 | 2.0 | 0.00 | 0.02 | 0.02 | 73 | 1012.7 |
| 20260501213159 | 54 | 140 | 0.0 | 2.0 | 0.00 | 0.02 | 0.02 | 74 | 1012.6 |
| 20260501212656 | 53 | 330 | 2.0 | 3.0 | 0.00 | 0.02 | 0.02 | 74 | 1012.5 |
| 20260501212153 | 53 | 348 | 0.0 | 2.0 | 0.00 | 0.02 | 0.02 | 76 | 1012.4 |
| 20260501211649 | 53 | 308 | 2.0 | 2.0 | 0.00 | 0.02 | 0.02 | 76 | 1012.5 |
| 20260501211147 | 53 | 289 | 0.0 | 1.0 | 0.00 | 0.02 | 0.02 | 77 | 1012.6 |
| 20260501210643 | 53 | 293 | 2.0 | 3.0 | 0.00 | 0.02 | 0.02 | 77 | 1012.5 |
| 20260501210140 | 53 | 356 | 1.0 | 2.0 | 0.00 | 0.02 | 0.02 | 78 | 1012.5 |
| 20260501205636 | 53 | 300 | 1.0 | 3.0 | 0.00 | 0.02 | 0.02 | 77 | 1012.3 |
| 20260501205134 | 53 | 333 | 2.0 | 4.0 | 0.00 | 0.02 | 0.02 | 78 | 1012.5 |
| 20260501204630 | 53 | 295 | 0.0 | 3.0 | 0.00 | 0.02 | 0.02 | 78 | 1012.5 |
| 20260501204126 | 53 | 347 | 3.0 | 9.0 | 0.00 | 0.02 | 0.02 | 76 | 1012.5 |
| 20260501203623 | 53 | 318 | 6.0 | 8.0 | 0.00 | 0.02 | 0.02 | 76 | 1012.6 |
| 20260501203121 | 53 | 310 | 2.0 | 3.0 | 0.00 | 0.02 | 0.02 | 76 | 1012.5 |
| 20260501202618 | 53 | 349 | 3.0 | 4.0 | 0.00 | 0.02 | 0.02 | 76 | 1012.6 |
| 20260501202114 | 53 | 7 | 3.0 | 4.0 | 0.00 | 0.02 | 0.02 | 74 | 1012.6 |
| 20260501201611 | 54 | 332 | 6.0 | 7.0 | 0.00 | 0.02 | 0.02 | 76 | 1012.5 |
| 20260501201108 | 54 | 275 | 4.0 | 6.0 | 0.00 | 0.02 | 0.02 | 75 | 1012.8 |
| 20260501200605 | 54 | 347 | 7.0 | 10.0 | 0.00 | 0.02 | 0.02 | 76 | 1012.5 |
| 20260501195600 | 54 | 317 | 6.0 | 10.0 | 0.00 | 0.02 | 0.02 | 74 | 1012.6 |
| 20260501195055 | 55 | 294 | 5.0 | 7.0 | 0.00 | 0.02 | 0.02 | 76 | 1012.7 |
| 20260501194551 | 56 | 312 | 6.0 | 9.0 | 0.00 | 0.02 | 0.02 | 75 | 1012.3 |
| 20260501194047 | 56 | 285 | 4.0 | 7.0 | 0.00 | 0.02 | 0.02 | 76 | 1012.4 |
| 20260501193544 | 56 | 324 | 4.0 | 4.0 | 0.00 | 0.02 | 0.02 | 76 | 1012.3 |
| 20260501193043 | 56 | 325 | 1.0 | 4.0 | 0.00 | 0.02 | 0.02 | 75 | 1012.4 |
| 20260501192539 | 56 | 327 | 1.0 | 4.0 | 0.00 | 0.02 | 0.02 | 76 | 1012.2 |
| 20260501192037 | 56 | 301 | 1.0 | 2.0 | 0.07 | 0.02 | 0.02 | 78 | 1012.2 |
| 20260501191534 | 55 | 313 | 0.0 | 3.0 | 0.07 | 0.02 | 0.02 | 78 | 1012.2 |
| 20260501191031 | 54 | 306 | 2.0 | 3.0 | 0.00 | 0.01 | 0.01 | 78 | 1012.3 |
| 20260501190526 | 54 | 12 | 4.0 | 4.0 | 0.00 | 0.01 | 0.01 | 78 | 1012.3 |
| 20260501190022 | 55 | 312 | 4.0 | 7.0 | 0.00 | 0.01 | 0.01 | 75 | 1012.2 |
| 20260501185519 | 55 | 321 | 3.0 | 6.0 | 0.00 | 0.01 | 0.01 | 73 | 1012.2 |
| 20260501185015 | 56 | 318 | 7.0 | 9.0 | 0.00 | 0.01 | 0.01 | 70 | 1012.0 |
| 20260501184512 | 58 | 326 | 4.0 | 7.0 | 0.00 | 0.01 | 0.01 | 64 | 1011.8 |
| 20260501184011 | 58 | 318 | 2.0 | 4.0 | 0.00 | 0.01 | 0.01 | 61 | 1011.6 |
| 20260501183509 | 58 | 343 | 6.0 | 8.0 | 0.00 | 0.01 | 0.01 | 61 | 1011.5 |
| 20260501183005 | 58 | 321 | 3.0 | 6.0 | 0.00 | 0.01 | 0.01 | 60 | 1011.3 |
| 20260501182502 | 59 | 311 | 4.0 | 8.0 | 0.00 | 0.01 | 0.01 | 56 | 1011.6 |
| 20260501181959 | 59 | 337 | 2.0 | 3.0 | 0.00 | 0.01 | 0.01 | 54 | 1011.4 |
| 20260501181456 | 60 | 310 | 1.0 | 3.0 | 0.00 | 0.01 | 0.01 | 55 | 1011.8 |
| 20260501180953 | 60 | 340 | 1.0 | 3.0 | 0.00 | 0.01 | 0.01 | 52 | 1011.4 |
| 20260501180450 | 61 | 275 | 1.0 | 4.0 | 0.00 | 0.01 | 0.01 | 51 | 1011.3 |
| 20260501175946 | 62 | 280 | 3.0 | 6.0 | 0.00 | 0.01 | 0.01 | 48 | 1011.2 |
| 20260501175443 | 62 | 240 | 2.0 | 4.0 | 0.00 | 0.01 | 0.01 | 48 | 1011.4 |
| 20260501174940 | 62 | 334 | 2.0 | 4.0 | 0.00 | 0.01 | 0.01 | 52 | 1011.6 |
| 20260501174438 | 62 | 227 | 5.0 | 14.0 | 0.00 | 0.01 | 0.01 | 47 | 1011.4 |
| 20260501173935 | 63 | 157 | 0.0 | 3.0 | 0.00 | 0.01 | 0.01 | 45 | 1011.4 |
| 20260501173433 | 62 | 221 | 0.0 | 2.0 | 0.00 | 0.01 | 0.01 | 52 | 1011.5 |
| 20260501172927 | 62 | 155 | 5.0 | 6.0 | 0.00 | 0.01 | 0.01 | 51 | 1011.8 |
| 20260501172424 | 62 | 197 | 4.0 | 4.0 | 0.00 | 0.01 | 0.01 | 48 | 1011.5 |
| 20260501171919 | 64 | 220 | 3.0 | 8.0 | 0.00 | 0.01 | 0.01 | 45 | 1011.4 |
| 20260501171416 | 63 | 317 | 2.0 | 6.0 | 0.00 | 0.01 | 0.01 | 53 | 1011.9 |
| 20260501170912 | 62 | 289 | 2.0 | 3.0 | 0.00 | 0.01 | 0.01 | 50 | 1011.8 |
| 20260501170410 | 62 | 160 | 3.0 | 9.0 | 0.00 | 0.01 | 0.01 | 52 | 1012.0 |
| 20260501165907 | 62 | 149 | 9.0 | 11.0 | 0.00 | 0.01 | 0.01 | 47 | 1011.9 |
| 20260501165405 | 62 | 203 | 4.0 | 4.0 | 0.00 | 0.01 | 0.01 | 48 | 1011.9 |
| 20260501164902 | 60 | 194 | 4.0 | 6.0 | 0.00 | 0.01 | 0.01 | 48 | 1011.9 |
| 20260501164400 | 61 | 280 | 1.0 | 2.0 | 0.00 | 0.01 | 0.01 | 48 | 1012.0 |
| 20260501163856 | 61 | 247 | 3.0 | 4.0 | 0.00 | 0.01 | 0.01 | 52 | 1012.4 |
| 20260501163352 | 60 | 228 | 3.0 | 3.0 | 0.00 | 0.01 | 0.01 | 50 | 1012.5 |
| 20260501162849 | 60 | 203 | 3.0 | 6.0 | 0.00 | 0.01 | 0.01 | 49 | 1012.4 |
| 20260501162346 | 60 | 130 | 5.0 | 8.0 | 0.00 | 0.01 | 0.01 | 49 | 1012.4 |
| 20260501161843 | 61 | 81 | 3.0 | 4.0 | 0.00 | 0.01 | 0.01 | 49 | 1012.6 |
| 20260501161340 | 60 | 215 | 1.0 | 7.0 | 0.00 | 0.01 | 0.01 | 55 | 1012.4 |
| 20260501160836 | 59 | 232 | 3.0 | 8.0 | 0.00 | 0.01 | 0.01 | 51 | 1012.9 |
| 20260501160333 | 59 | 225 | 2.0 | 4.0 | 0.00 | 0.01 | 0.01 | 53 | 1012.7 |
| 20260501155831 | 59 | 279 | 4.0 | 7.0 | 0.00 | 0.01 | 0.01 | 50 | 1012.4 |
| 20260501155327 | 60 | 202 | 3.0 | 4.0 | 0.00 | 0.01 | 0.01 | 51 | 1012.5 |
| 20260501154824 | 59 | 203 | 1.0 | 4.0 | 0.00 | 0.01 | 0.01 | 57 | 1012.5 |
| 20260501154321 | 58 | 209 | 4.0 | 8.0 | 0.00 | 0.01 | 0.01 | 53 | 1012.5 |